Regional Weather Roundup
Issued by NWS

Home | Current Version | Previous Version | Text Only | Print | Product List | Glossary Off
Versions: 1 2 3 4 5 6 7 8 9 10 11 12 13 14 15 16 17 18 19 20 21 22 23 24 25 26 27 28 29 30 31 32 33 34 35 36 37 38 39 40 41 42 43 44 45 46 47 48 49 50

000
ASUS43 KOAX 291610
RWRNE

WEATHER ROUNDUP FOR NEBRASKA
NATIONAL WEATHER SERVICE OMAHA NE
1100 AM CDT MON JUN 29 2015

NOTES: SATELLITE DATA IS BEING USED TO AUGMENT CLOUD COVER ABOVE
       12000 FEET.
       "FAIR" INDICATES FEW OR NO CLOUDS BELOW 12,000 FEET WITH NO
       SIGNIFICANT WEATHER AND/OR OBSTRUCTIONS TO VISIBILITY.

  * THESE STATIONS DO NOT REPORT WEATHER SUCH AS RAIN...SNOW OR FOG.

NEZ001>004-019>022-054>056-291700-
NEBRASKA PANHANDLE

CITY           SKY/WX    TMP DP  RH WIND       PRES   REMARKS
SCOTTSBLUFF    MOSUNNY   75  56  51 SW5       30.18S
ALLIANCE       CLOUDY    71  62  73 S12       30.12F
CHADRON        PTSUNNY   77  63  61 SW6       30.09S
KIMBALL          N/A    N/A N/A N/A MISG        N/A
SIDNEY         MOSUNNY   74  60  61 N13       30.20R
$$

NEZ057>060-069>072-079>082-291700-
SOUTHWEST NEBRASKA

CITY           SKY/WX    TMP DP  RH WIND       PRES   REMARKS
NORTH PLATTE   MOSUNNY   81  58  45 VRB5      30.08F
IMPERIAL       SUNNY     81  55  40 VRB3      30.12R
LEXINGTON      SUNNY     81  58  45 W6        30.07S
MCCOOK         MOSUNNY   80  57  45 SW7       30.08F
OGALLALA       MOSUNNY   79  55  44 N7        30.13R
$$

NEZ005>010-023>029-035>040-094-291700-
NORTH CENTRAL NEBRASKA

CITY           SKY/WX    TMP DP  RH WIND       PRES   REMARKS
VALENTINE      SUNNY     82  58  43 N6        30.05F
AINSWORTH      SUNNY     81  58  45 NW8       30.06F
BROKEN BOW     SUNNY     80  59  48 NW10      30.06F
O`NEILL        SUNNY     77  60  55 NW8       30.04S
ORD            SUNNY     78  59  51 NW8       30.02F
THEDFORD       SUNNY     82  59  45 N6        30.09F
$$

NEZ041-046>049-061>064-073>077-083>087-291700-
SOUTH CENTRAL NEBRASKA

CITY           SKY/WX    TMP DP  RH WIND       PRES   REMARKS
GRAND ISLAND   SUNNY     77  60  55 W8        30.04S
AURORA         SUNNY     77  58  51 NW9       30.03R
HASTINGS       SUNNY     78  58  49 NW6       30.04F
HEBRON         SUNNY     78  60  53 NW6       30.02S
HOLDREGE       SUNNY     79  54  42 NW7       30.06F
KEARNEY *      SUNNY     79  57  47 W9        30.05S
YORK           SUNNY     77  61  57 N9        30.02R
$$

NEZ011>018-030>034-042>045-291700-
NORTHEAST NEBRASKA

CITY           SKY/WX    TMP DP  RH WIND       PRES   REMARKS
NORFOLK        SUNNY     79  63  57 W8        29.98F
ALBION         SUNNY     77  59  53 NW6       30.01F
BLAIR          SUNNY     77  62  59 NW6       29.96R
COLUMBUS *     SUNNY    N/A N/A N/A MISG        N/A
FREMONT        SUNNY     81  61  51 W8        29.97R
TEKAMAH        SUNNY     81  64  56 N6        29.94S
WAYNE          SUNNY     76  65  66 NW7       29.98R
$$

NEZ050>053-065>068-078-088>093-291700-
SOUTHEAST NEBRASKA

CITY           SKY/WX    TMP DP  RH WIND       PRES   REMARKS
LINCOLN        SUNNY     82  61  48 NW10      29.98S
OMAHA EPPLEY   CLOUDY    79  64  60 NW6       29.94S
BEATRICE       SUNNY     79  62  56 NW9       29.99S
FALLS CITY     SUNNY     80  65  59 W8        29.94F
NEBRASKA CITY  SUNNY     80  56  44 NW9       29.96S
PLATTSMOUTH    SUNNY     77  61  56 NW7       29.96R
$$

NEZ044-045-051>053-067-291700-
OMAHA AREA

CITY           SKY/WX    TMP DP  RH WIND       PRES   REMARKS
OMAHA EPPLEY   CLOUDY    79  64  60 NW6       29.94S
BLAIR          SUNNY     77  62  59 NW6       29.96R
FREMONT        SUNNY     81  61  51 W8        29.97R
MILLARD        SUNNY     78  65  63 NW7       29.95R
OFFUTT AFB     SUNNY     78  65  63 NW6       29.94S
PLATTSMOUTH    SUNNY     77  61  56 NW7       29.96R
WAHOO          FAIR      80  61  51 NW10      29.97R
$$


USA.gov is the U.S. government's official web portal to all federal, state and local government web resources and services.